SCP
0 -0 0 0 0 0 0 0 0 0 0 0 0 0 0 0 0 0 0 0 0 0 -0 -0 0 0 0 0 0 0 0 0 0 0 0 0 0 0 0 0 0 0 0
-0 -0 -0 -0 -0 -0 0 0 0 0 0 0 0 0 0 0 0 0 0 0 -0 0 -0 -0 -0 -0 0 0 0 0 0 0 0 0 0 0 0 0 0 0 0 0 0
0 0 -0 -0 -0 0 0 0 0 0 0 0 0 0 0 0 0 0 0 0 0 -0 -0 -0 -0 -0 -0 0 0 0 0 0 0 0 0 0 0 0 0 0 0 0 0
0 0 0 -0 0 0 0 0 0 0 0 0 0 0 0 0 0 0 0 0 -0 -0 -0 0 -0 -0 -0 0 0 0 0 0 0 0 0 0 0 0 0 0 0 0 0
0 0 0 -0 0 0 0 0 0 0 0 0 0 0 0 0 0 0 0 -0 -0 -0 -0 -0 -0 -0 0 0 0 0 0 0 0 0 0 0 0 0 0 0 0 0 0
0 0 0 0 0 0 0 0 0 0 0 0 0 0 0 0 0 0 0 0 -0 -0 -0 -0 -0 -0 0 0 0 0 0 0 0 0 0 0 0 0 0 0 0 0 0
0 0 0 0 0 0 0 0 0 0 0 0 0 0 0 0 0 0 0 0 -0 -0 -0 -0 -0 -0 -0 0 0 0 0 0 0 0 0 0 0 0 0 0 0 0 0
0 0 0 0 0 0 0 0 0 0 0 0 0 0 0 0 0 0 0 0 -0 -0 -0 -0 -0 -0 0 0 0 0 0 0 0 0 0 0 0 0 0 0 0 0 0
0 0 0 0 0 0 0 0 0 0 0 0 0 0 0 0 0 0 0 0 0 -0 -0 -0 -0 -0 0 0 0 0 0 0 0 0 0 0 0 0 0 0 0 0 0
0 0 0 0 0 0 0 0 0 0 0 0 0 0 0 0 0 0 0 0 0 -0 -0 -0 -0 0 0 0 0 0 0 0 0 0 0 0 0 0 0 0 0 0 0
0 0 0 0 0 0 0 0 0 0 0 0 0 0 0 0 0 0 0 0 0 0 0 0 0 0 0 0 0 0 0 0 0 0 0 0 0 0 0 0 0 0 0
0 0 0 0 0 0 0 0 0 0 0 0 0 0 0 0 0 0 0 0 0 0 0 0 0 0 0 0 0 0 0 0 0 0 0 0 0 0 0 0 0 0 0
0 0 0 0 0 0 0 0 0 0 0 0 0 0 0 0 0 0 0 0 0 0 0 0 0 0 0 0 0 0 0 0 0 0 0 0 0 0 0 0 0 0 0
0 0 0 0 0 0 0 0 0 0 0 0 0 0 0 0 0 0 0 0 0 0 0 0 0 0 0 0 0 0 0 0 0 0 0 0 0 0 0 0 0 0 0
0 0 0 0 0 0 0 0 0 0 0 0 0 0 0 0 0 0 0 0 0 0 0 0 0 0 0 0 0 0 0 0 0 0 0 0 0 0 0 0 0 0 0
0 0 0 0 0 0 0 0 0 0 0 0 0 0 0 0 0 0 0 0 0 0 0 0 0 0 0 0 0 0 0 0 0 0 0 0 0 0 0 0 0 0 0
0 0 0 0 0 0 0 0 0 0 0 0 0 0 0 0 0 0 0 0 0 0 0 0 0 0 0 0 0 0 0 0 0 0 0 0 0 0 0 0 0 0 0
0 0 0 0 0 0 0 0 0 0 0 0 0 0 0 0 0 0 0 0 0 0 0 0 0 0 0 0 0 0 0 0 0 0 0 0 0 0 0 0 0 0 0
0 0 0 0 0 0 0 0 0 0 0 0 0 0 0 0 0 0 0 0 0 0 0 0 0 0 0 0 0 0 0 0 0 0 0 0 0 0 0 0 0 0 0
0 0 0 0 0 0 0 0 0 0 0 0 0 0 0 0 0 0 0 0 0 0 0 0 0 0 0 0 0 0 0 0 0 0 0 0 0 0 0 0 0 0 0
0 0 0 0 0 0 0 0 0 0 0 0 0 0 0 0 0 0 0 0 0 0 0 0 0 0 0 0 0 0 0 0 0 0 0 0 0 0 0 0 0 0 0
0 0 0 0 0 0 0 0 0 0 0 0 0 0 0 0 0 0 0 0 0 0 0 0 0 0 0 0 0 0 0 0 0 0 0 0 0 0 0 0 0 0 0
0 0 0 0 0 0 0 0 0 0 0 0 0 0 0 0 0 0 0 0 0 0 0 0 0 0 0 0 0 0 0 0 0 0 0 0 0 0 0 0 0 0 0
0 0 0 0 0 0 0 0 0 0 0 0 0 0 0 0 0 0 0 0 0 0 0 0 0 0 0 0 0 0 0 0 0 0 0 0 0 0 0 0 0 0 0
0 0 0 0 0 0 0 0 0 0 0 0 0 0 0 0 0 0 0 0 0 0 0 0 0 0 0 0 0 0 0 0 0 0 0 0 0 0 0 0 0 0 0
0 0 0 0 0 0 0 0 0 0 0 0 0 0 0 0 0 0 0 0 0 0 0 0 0 0 0 0 0 0 0 0 0 0 0 0 0 0 0 0 0 0 0
Wind_Speed_500mb
18 16 13 13 12 12 11 11 12 12 14 14 14 13 13 12 12 11 10 13 14 16 16 15 15 14 13 14 14 13 13 14 15 17 17 16 16 16 16 17 17 16 19
20 18 16 15 14 13 12 12 13 13 15 14 15 15 15 14 14 13 13 14 16 18 18 16 13 13 11 10 10 9 10 10 13 13 15 14 15 17 18 18 16 14 8
23 19 19 17 16 14 14 14 14 13 14 16 17 17 16 15 16 16 16 16 17 18 17 16 12 9 8 6 5 5 6 7 10 13 15 16 18 18 20 20 19 16 17
25 24 21 20 19 16 15 15 16 16 16 17 17 19 17 17 19 19 18 18 20 18 17 14 11 9 7 4 1 1 3 6 10 14 18 19 19 19 20 20 19 16 15
23 24 25 23 23 19 18 19 19 19 19 18 20 22 22 22 24 25 22 21 23 21 19 14 12 12 10 6 5 3 1 5 10 14 18 20 21 21 20 20 20 19 13
27 28 29 29 28 24 22 22 21 22 22 22 24 25 25 26 27 28 27 24 26 24 20 15 14 14 13 11 9 5 1 4 9 14 17 20 22 22 20 21 22 20 15
31 30 31 33 31 27 23 25 26 26 25 25 26 27 27 28 28 29 31 28 26 29 23 19 17 17 17 14 13 8 4 3 7 11 15 19 20 22 20 20 20 20 17
35 35 34 34 35 34 31 30 30 29 30 27 25 21 14 25 31 33 36 31 30 34 29 24 22 21 19 18 16 11 7 4 6 10 13 16 18 20 21 21 20 19 17
38 39 39 37 37 39 37 35 34 34 32 30 28 22 11 10 13 33 38 38 33 36 37 31 27 25 23 23 20 15 12 8 7 10 12 14 16 18 20 21 20 18 18
41 41 41 42 42 41 42 40 39 39 38 35 34 33 37 23 8 9 29 39 39 40 40 40 34 30 28 28 25 21 17 13 11 12 14 15 17 18 19 20 20 18 19
43 43 44 45 46 46 45 44 45 45 43 43 42 40 37 43 44 30 23 21 42 43 42 44 41 37 34 32 30 27 22 18 17 16 16 16 19 20 19 19 19 19 20
40 44 44 46 47 49 49 48 48 50 50 49 47 47 47 46 38 43 46 40 35 36 44 48 49 44 40 38 36 33 28 25 22 21 20 20 22 22 20 21 20 22 23
42 41 42 46 48 47 48 50 54 56 57 58 54 54 52 52 52 51 45 43 46 47 39 43 50 46 45 44 42 38 35 32 28 26 25 24 25 26 24 23 24 25 26
46 41 43 46 47 49 51 52 55 60 62 64 64 61 58 57 57 57 57 54 51 51 55 52 43 47 50 47 44 44 42 41 34 32 30 30 30 29 29 28 28 29 30
55 50 49 51 51 52 53 54 59 61 63 67 70 69 68 65 62 61 61 61 58 59 64 56 51 49 47 49 50 52 48 45 42 39 37 36 34 33 34 33 33 33 34
62 58 53 53 53 55 55 57 61 62 64 67 69 73 74 73 70 67 68 66 66 67 75 68 50 40 40 50 51 55 55 51 50 45 42 43 40 39 39 39 37 36 38
49 52 55 57 57 56 56 61 64 67 68 69 71 74 77 76 77 76 74 74 75 74 84 87 81 69 53 42 49 55 59 59 56 51 49 49 46 45 44 44 42 41 42
40 45 49 53 55 55 55 60 65 69 73 76 74 76 78 79 82 83 82 81 81 83 85 92 89 84 77 73 65 56 60 63 62 59 58 57 54 52 50 47 47 46 45
29 34 42 48 50 53 56 55 57 62 69 74 77 80 79 80 82 82 86 87 86 88 90 93 96 94 87 80 77 79 79 75 73 71 67 66 63 58 56 53 51 51 51
31 31 34 39 44 49 52 55 59 60 63 67 71 77 80 84 83 81 83 85 85 91 94 97 97 97 99 92 86 84 88 88 87 83 78 74 71 68 65 60 57 57 56
34 32 34 36 39 42 46 51 55 59 62 64 68 72 74 77 80 80 82 84 83 87 92 99 103 101 104 101 100 94 97 93 92 88 86 84 81 79 73 69 64 62 60
41 38 37 37 36 37 38 43 49 57 61 65 68 70 72 72 74 74 77 79 84 87 93 97 101 106 105 99 95 97 96 100 101 95 95 94 92 89 80 77 69 66 65
51 48 45 42 40 38 38 39 42 50 59 66 69 69 71 72 72 75 74 77 80 85 88 91 101 105 102 96 91 97 96 99 104 101 93 95 96 94 84 81 74 71 68
58 57 54 51 49 44 42 42 44 48 52 58 66 70 72 71 72 72 75 81 86 87 87 90 96 97 99 94 97 96 93 92 93 94 95 109 101 92 81 77 77 73 71
63 62 60 59 58 55 50 48 47 50 51 52 53 59 65 70 69 68 73 81 87 94 88 88 91 89 84 82 85 87 96 93 99 100 96 100 101 97 92 86 80 76 74
67 67 65 61 59 60 54 51 47 50 55 54 51 50 51 56 60 63 70 77 88 90 85 87 89 87 83 82 83 94 91 99 103 100 98 88 94 95 90 94 88 81 76
Wind_Direction_500mb
213 207 201 201 201 199 201 201 205 197 193 188 185 181 183 179 178 177 171 171 165 162 157 158 146 125 110 91 78 69 55 42 31 21 14 10 3 356 353 354 348 350 351
224 217 218 216 218 208 208 209 208 206 204 206 204 202 202 201 197 192 188 186 177 174 167 162 144 131 114 92 78 60 45 31 21 11 7 4 357 356 354 349 337 330 314
236 233 228 229 223 214 213 214 217 216 223 221 219 218 212 212 208 204 199 197 188 182 177 162 148 139 122 97 75 59 43 23 20 15 9 6 0 358 356 351 348 349 0
239 237 234 233 230 223 222 223 229 231 231 230 232 229 227 227 221 210 207 205 197 187 184 167 163 155 151 160 141 81 39 27 26 20 15 8 6 0 357 355 358 359 2
247 246 240 234 234 227 226 229 235 236 240 242 241 240 238 235 228 215 211 212 206 196 188 178 177 177 182 193 206 206 62 33 23 18 12 10 7 2 357 357 358 356 359
249 249 240 235 237 233 232 238 242 244 246 250 251 251 247 240 232 221 212 211 212 204 198 196 191 193 196 201 207 210 195 22 16 11 8 9 6 1 359 1 0 1 0
251 252 245 240 241 241 242 243 244 245 248 253 261 261 256 248 236 224 214 212 215 212 208 205 200 204 205 208 212 215 229 344 1 3 2 4 359 359 359 359 359 0 3
252 253 250 247 248 249 246 245 246 249 252 255 259 268 279 251 239 231 225 223 224 221 216 215 213 215 214 216 221 222 234 271 322 344 348 350 350 354 355 355 355 353 352
258 258 255 251 250 252 250 249 250 252 256 256 254 245 258 256 269 239 236 231 233 229 222 222 221 222 221 221 224 228 236 251 292 316 326 332 339 345 349 352 349 344 344
264 262 259 254 252 253 254 251 252 252 254 253 253 247 243 261 297 281 242 234 238 236 231 229 229 227 227 226 226 230 234 248 270 288 302 313 324 330 335 342 339 334 332
265 263 261 257 254 254 255 255 252 251 254 255 252 253 253 255 256 266 277 257 244 244 242 237 235 232 232 229 229 231 238 246 256 270 283 299 304 311 322 327 326 322 321
273 267 265 263 260 258 257 259 259 256 254 254 253 252 251 251 257 259 263 268 272 258 249 243 240 238 236 233 230 231 237 243 252 263 273 283 290 297 307 313 314 312 315
285 279 275 272 269 268 264 261 259 257 255 255 254 255 255 255 256 257 261 265 266 267 262 252 245 241 237 235 233 233 237 243 249 259 265 272 279 288 294 299 303 306 307
294 289 282 279 276 273 270 266 263 260 257 256 255 254 255 254 255 258 259 261 266 268 267 259 256 250 245 241 240 238 238 241 247 254 261 266 272 280 286 288 294 298 298
291 291 286 282 279 276 272 268 264 261 261 259 258 257 255 255 253 255 256 256 258 263 270 269 261 256 249 244 241 241 241 243 246 252 258 263 267 274 279 282 284 289 291
280 284 284 282 279 275 271 269 268 264 261 258 258 258 257 255 255 253 254 255 255 256 260 264 261 260 252 245 240 241 241 243 247 251 256 260 264 269 273 277 279 282 283
281 278 278 279 279 276 273 269 265 265 263 262 259 258 257 258 257 255 254 254 255 253 256 262 260 257 257 254 243 243 242 243 248 252 255 258 261 264 267 271 274 277 278
282 282 278 277 276 274 275 272 269 264 262 261 261 263 261 260 258 258 257 255 255 257 256 262 265 264 260 257 254 252 251 250 251 253 256 259 259 261 263 266 271 274 276
311 287 279 278 279 276 273 273 276 272 267 263 262 262 262 264 264 262 261 260 258 258 258 259 263 266 265 260 256 254 253 253 254 253 255 258 261 262 262 262 268 271 273
329 314 300 292 283 277 275 274 274 274 273 268 265 264 264 264 265 265 265 264 264 263 262 262 263 264 265 264 260 257 255 253 253 253 255 257 260 261 261 260 263 266 269
331 326 322 309 298 290 284 279 275 275 275 276 274 271 267 265 267 266 267 267 267 267 265 264 263 262 262 262 262 262 260 260 258 256 257 256 258 259 260 260 260 263 266
324 324 322 319 315 310 300 290 286 279 275 276 275 275 274 271 270 268 266 266 267 265 265 265 266 264 264 264 267 267 265 261 260 260 256 257 256 256 258 258 259 262 262
321 319 317 318 312 309 309 306 296 286 281 277 276 276 276 274 272 272 270 270 266 265 264 266 265 264 267 266 267 266 265 263 262 262 262 262 258 258 259 257 256 256 259
321 319 316 314 312 307 304 302 303 297 291 282 278 277 276 276 275 275 274 270 268 268 266 266 266 267 267 267 265 266 269 271 267 264 260 257 259 258 257 255 251 250 256
324 319 316 314 313 308 308 306 301 298 297 294 290 283 279 278 278 276 273 272 271 268 268 268 269 270 271 270 270 266 263 262 261 260 254 252 254 255 254 253 250 251 255
322 320 315 312 309 310 306 307 305 302 299 299 297 294 289 286 283 277 273 274 273 272 275 274 272 271 270 266 263 261 260 257 258 258 256 251 252 249 250 252 251 249 249
Wind_Speed_850mb
18 16 13 13 12 12 11 11 12 12 14 14 14 13 13 12 12 11 10 13 14 16 16 15 15 14 13 14 14 13 13 14 15 17 17 16 16 16 16 17 17 16 19
20 18 16 15 14 13 12 12 13 13 15 14 15 15 15 14 14 13 13 14 16 18 18 16 13 13 11 10 10 9 10 10 13 13 15 14 15 17 18 18 16 14 8
23 19 19 17 16 14 14 14 14 13 14 16 17 17 16 15 16 16 16 16 17 18 17 16 12 9 8 6 5 5 6 7 10 13 15 16 18 18 20 20 19 16 17
25 24 21 20 19 16 15 15 16 16 16 17 17 19 17 17 19 19 18 18 20 18 17 14 11 9 7 4 1 1 3 6 10 14 18 19 19 19 20 20 19 16 15
23 24 25 23 23 19 18 19 19 19 19 18 20 22 22 22 24 25 22 21 23 21 19 14 12 12 10 6 5 3 1 5 10 14 18 20 21 21 20 20 20 19 13
27 28 29 29 28 24 22 22 21 22 22 22 24 25 25 26 27 28 27 24 26 24 20 15 14 14 13 11 9 5 1 4 9 14 17 20 22 22 20 21 22 20 15
31 30 31 33 31 27 23 25 26 26 25 25 26 27 27 28 28 29 31 28 26 29 23 19 17 17 17 14 13 8 4 3 7 11 15 19 20 22 20 20 20 20 17
35 35 34 34 35 34 31 30 30 29 30 27 25 21 14 25 31 33 36 31 30 34 29 24 22 21 19 18 16 11 7 4 6 10 13 16 18 20 21 21 20 19 17
38 39 39 37 37 39 37 35 34 34 32 30 28 22 11 10 13 33 38 38 33 36 37 31 27 25 23 23 20 15 12 8 7 10 12 14 16 18 20 21 20 18 18
41 41 41 42 42 41 42 40 39 39 38 35 34 33 37 23 8 9 29 39 39 40 40 40 34 30 28 28 25 21 17 13 11 12 14 15 17 18 19 20 20 18 19
43 43 44 45 46 46 45 44 45 45 43 43 42 40 37 43 44 30 23 21 42 43 42 44 41 37 34 32 30 27 22 18 17 16 16 16 19 20 19 19 19 19 20
40 44 44 46 47 49 49 48 48 50 50 49 47 47 47 46 38 43 46 40 35 36 44 48 49 44 40 38 36 33 28 25 22 21 20 20 22 22 20 21 20 22 23
42 41 42 46 48 47 48 50 54 56 57 58 54 54 52 52 52 51 45 43 46 47 39 43 50 46 45 44 42 38 35 32 28 26 25 24 25 26 24 23 24 25 26
46 41 43 46 47 49 51 52 55 60 62 64 64 61 58 57 57 57 57 54 51 51 55 52 43 47 50 47 44 44 42 41 34 32 30 30 30 29 29 28 28 29 30
55 50 49 51 51 52 53 54 59 61 63 67 70 69 68 65 62 61 61 61 58 59 64 56 51 49 47 49 50 52 48 45 42 39 37 36 34 33 34 33 33 33 34
62 58 53 53 53 55 55 57 61 62 64 67 69 73 74 73 70 67 68 66 66 67 75 68 50 40 40 50 51 55 55 51 50 45 42 43 40 39 39 39 37 36 38
49 52 55 57 57 56 56 61 64 67 68 69 71 74 77 76 77 76 74 74 75 74 84 87 81 69 53 42 49 55 59 59 56 51 49 49 46 45 44 44 42 41 42
40 45 49 53 55 55 55 60 65 69 73 76 74 76 78 79 82 83 82 81 81 83 85 92 89 84 77 73 65 56 60 63 62 59 58 57 54 52 50 47 47 46 45
29 34 42 48 50 53 56 55 57 62 69 74 77 80 79 80 82 82 86 87 86 88 90 93 96 94 87 80 77 79 79 75 73 71 67 66 63 58 56 53 51 51 51
31 31 34 39 44 49 52 55 59 60 63 67 71 77 80 84 83 81 83 85 85 91 94 97 97 97 99 92 86 84 88 88 87 83 78 74 71 68 65 60 57 57 56
34 32 34 36 39 42 46 51 55 59 62 64 68 72 74 77 80 80 82 84 83 87 92 99 103 101 104 101 100 94 97 93 92 88 86 84 81 79 73 69 64 62 60
41 38 37 37 36 37 38 43 49 57 61 65 68 70 72 72 74 74 77 79 84 87 93 97 101 106 105 99 95 97 96 100 101 95 95 94 92 89 80 77 69 66 65
51 48 45 42 40 38 38 39 42 50 59 66 69 69 71 72 72 75 74 77 80 85 88 91 101 105 102 96 91 97 96 99 104 101 93 95 96 94 84 81 74 71 68
58 57 54 51 49 44 42 42 44 48 52 58 66 70 72 71 72 72 75 81 86 87 87 90 96 97 99 94 97 96 93 92 93 94 95 109 101 92 81 77 77 73 71
63 62 60 59 58 55 50 48 47 50 51 52 53 59 65 70 69 68 73 81 87 94 88 88 91 89 84 82 85 87 96 93 99 100 96 100 101 97 92 86 80 76 74
67 67 65 61 59 60 54 51 47 50 55 54 51 50 51 56 60 63 70 77 88 90 85 87 89 87 83 82 83 94 91 99 103 100 98 88 94 95 90 94 88 81 76
Wind_Direction_850mb
213 207 201 201 201 199 201 201 205 197 193 188 185 181 183 179 178 177 171 171 165 162 157 158 146 125 110 91 78 69 55 42 31 21 14 10 3 356 353 354 348 350 351
224 217 218 216 218 208 208 209 208 206 204 206 204 202 202 201 197 192 188 186 177 174 167 162 144 131 114 92 78 60 45 31 21 11 7 4 357 356 354 349 337 330 314
236 233 228 229 223 214 213 214 217 216 223 221 219 218 212 212 208 204 199 197 188 182 177 162 148 139 122 97 75 59 43 23 20 15 9 6 0 358 356 351 348 349 0
239 237 234 233 230 223 222 223 229 231 231 230 232 229 227 227 221 210 207 205 197 187 184 167 163 155 151 160 141 81 39 27 26 20 15 8 6 0 357 355 358 359 2
247 246 240 234 234 227 226 229 235 236 240 242 241 240 238 235 228 215 211 212 206 196 188 178 177 177 182 193 206 206 62 33 23 18 12 10 7 2 357 357 358 356 359
249 249 240 235 237 233 232 238 242 244 246 250 251 251 247 240 232 221 212 211 212 204 198 196 191 193 196 201 207 210 195 22 16 11 8 9 6 1 359 1 0 1 0
251 252 245 240 241 241 242 243 244 245 248 253 261 261 256 248 236 224 214 212 215 212 208 205 200 204 205 208 212 215 229 344 1 3 2 4 359 359 359 359 359 0 3
252 253 250 247 248 249 246 245 246 249 252 255 259 268 279 251 239 231 225 223 224 221 216 215 213 215 214 216 221 222 234 271 322 344 348 350 350 354 355 355 355 353 352
258 258 255 251 250 252 250 249 250 252 256 256 254 245 258 256 269 239 236 231 233 229 222 222 221 222 221 221 224 228 236 251 292 316 326 332 339 345 349 352 349 344 344
264 262 259 254 252 253 254 251 252 252 254 253 253 247 243 261 297 281 242 234 238 236 231 229 229 227 227 226 226 230 234 248 270 288 302 313 324 330 335 342 339 334 332
265 263 261 257 254 254 255 255 252 251 254 255 252 253 253 255 256 266 277 257 244 244 242 237 235 232 232 229 229 231 238 246 256 270 283 299 304 311 322 327 326 322 321
273 267 265 263 260 258 257 259 259 256 254 254 253 252 251 251 257 259 263 268 272 258 249 243 240 238 236 233 230 231 237 243 252 263 273 283 290 297 307 313 314 312 315
285 279 275 272 269 268 264 261 259 257 255 255 254 255 255 255 256 257 261 265 266 267 262 252 245 241 237 235 233 233 237 243 249 259 265 272 279 288 294 299 303 306 307
294 289 282 279 276 273 270 266 263 260 257 256 255 254 255 254 255 258 259 261 266 268 267 259 256 250 245 241 240 238 238 241 247 254 261 266 272 280 286 288 294 298 298
291 291 286 282 279 276 272 268 264 261 261 259 258 257 255 255 253 255 256 256 258 263 270 269 261 256 249 244 241 241 241 243 246 252 258 263 267 274 279 282 284 289 291
280 284 284 282 279 275 271 269 268 264 261 258 258 258 257 255 255 253 254 255 255 256 260 264 261 260 252 245 240 241 241 243 247 251 256 260 264 269 273 277 279 282 283
281 278 278 279 279 276 273 269 265 265 263 262 259 258 257 258 257 255 254 254 255 253 256 262 260 257 257 254 243 243 242 243 248 252 255 258 261 264 267 271 274 277 278
282 282 278 277 276 274 275 272 269 264 262 261 261 263 261 260 258 258 257 255 255 257 256 262 265 264 260 257 254 252 251 250 251 253 256 259 259 261 263 266 271 274 276
311 287 279 278 279 276 273 273 276 272 267 263 262 262 262 264 264 262 261 260 258 258 258 259 263 266 265 260 256 254 253 253 254 253 255 258 261 262 262 262 268 271 273
329 314 300 292 283 277 275 274 274 274 273 268 265 264 264 264 265 265 265 264 264 263 262 262 263 264 265 264 260 257 255 253 253 253 255 257 260 261 261 260 263 266 269
331 326 322 309 298 290 284 279 275 275 275 276 274 271 267 265 267 266 267 267 267 267 265 264 263 262 262 262 262 262 260 260 258 256 257 256 258 259 260 260 260 263 266
324 324 322 319 315 310 300 290 286 279 275 276 275 275 274 271 270 268 266 266 267 265 265 265 266 264 264 264 267 267 265 261 260 260 256 257 256 256 258 258 259 262 262
321 319 317 318 312 309 309 306 296 286 281 277 276 276 276 274 272 272 270 270 266 265 264 266 265 264 267 266 267 266 265 263 262 262 262 262 258 258 259 257 256 256 259
321 319 316 314 312 307 304 302 303 297 291 282 278 277 276 276 275 275 274 270 268 268 266 266 266 267 267 267 265 266 269 271 267 264 260 257 259 258 257 255 251 250 256
324 319 316 314 313 308 308 306 301 298 297 294 290 283 279 278 278 276 273 272 271 268 268 268 269 270 271 270 270 266 263 262 261 260 254 252 254 255 254 253 250 251 255
322 320 315 312 309 310 306 307 305 302 299 299 297 294 289 286 283 277 273 274 273 272 275 274 272 271 270 266 263 261 260 257 258 258 256 251 252 249 250 252 251 249 249